Amateur Radio Satellites - All Passes

Search period start: 19 May 2013 23:51
Search period end: 20 May 2013 23:51
Location: Kouchibouguac National Park, 46.8081°N, 64.9088°W

Satellite Date Start Highest point End Downlink Frequencies (MHz)
Time Altitude Azimuth
OPAL 20 May 00:00:48 00:04:28 19° 267° (W) 00:08:07 ?
KITSAT 1 20 May 00:15:04 00:22:55 60° 116° (ESE) 00:30:51 435.175 FM
RS-15 20 May 00:57:06 01:08:02 50° 36° (NE) 01:18:33 29.354 - 29.394 USB, Beacon 29.352 USB
Oscar 10/S400 20 May 01:34:04 06:37:29 29° 90° (E) 08:56:00 145.825 - 145.975 CW/USB, Beacon 145.810 USB
MaSat-1 20 May 01:45:37 01:49:49 17° 103° (ESE) 01:53:38 437.345 MHz
KITSAT 1 20 May 02:11:03 02:18:40 43° 319° (NW) 02:26:22 435.175 FM
Oscar 16 20 May 02:15:09 02:19:21 24° 93° (E) 02:23:29 437.025 USB, Beacon 2401.1428
AO-27 20 May 02:16:58 02:20:36 19° 90° (E) 02:24:13 436.795 MHz FM
ITAMSAT 1 20 May 02:24:14 02:28:10 21° 92° (E) 02:32:05 435.822 SSB
Uribyol 2 20 May 03:05:19 03:10:25 49° 100° (E) 03:15:29 436.500 FM
RS-15 20 May 03:09:58 03:20:52 64° 243° (WSW) 03:31:30 29.354 - 29.394 USB, Beacon 29.352 USB
Oscar 19 20 May 03:15:01 03:20:13 69° 102° (ESE) 03:25:20 437.125 CW, 437.150 USB
MaSat-1 20 May 03:24:26 03:31:33 82° 117° (ESE) 03:37:20 437.345 MHz
Uosat F 20 May 03:35:09 03:37:50 14° 89° (E) 03:40:32 435.120 FM
ISS 20 May 03:38:26 03:38:43 10° 132° (SE) 03:38:59 145.800 FM
AO-Echo 20 May 03:43:46 03:48:09 37° 97° (E) 03:52:35 ?
Oscar 16 20 May 03:53:58 03:58:59 49° 291° (WNW) 04:03:56 437.025 USB, Beacon 2401.1428
AO-27 20 May 03:55:25 04:00:36 65° 289° (WNW) 04:05:46 436.795 MHz FM
Gurwin Techsat 1B 20 May 04:02:39 04:06:47 23° 92° (E) 04:10:54 435.225 FM
ITAMSAT 1 20 May 04:02:55 04:08:03 57° 290° (WNW) 04:13:09 435.822 SSB
KITSAT 1 20 May 04:10:39 04:16:30 21° 347° (NNW) 04:22:23 435.175 FM
Uribyol 2 20 May 04:45:22 04:49:38 26° 298° (WNW) 04:53:54 436.500 FM
Oscar 19 20 May 04:55:26 04:59:03 20° 301° (WNW) 05:02:39 437.125 CW, 437.150 USB
MaSat-1 20 May 05:08:54 05:14:11 25° 313° (NW) 05:18:41 437.345 MHz
ISS 20 May 05:11:33 05:14:49 60° 149° (SSE) 05:18:08 145.800 FM
Uosat F 20 May 05:12:13 05:17:16 79° 287° (WNW) 05:22:17 435.120 FM
AO-7 20 May 05:20:49 05:27:52 29° 93° (E) 05:34:52 29.400 - 29.500 MHz
TMSAT-1 20 May 05:21:48 05:27:08 73° 103° (ESE) 05:32:26 436.925 FM
AO-Echo 20 May 05:22:51 05:26:51 28° 295° (WNW) 05:30:54 ?
RS-15 20 May 05:25:39 05:30:41 14° 266° (W) 05:35:42 29.354 - 29.394 USB, Beacon 29.352 USB
STRAND 1 20 May 05:29:32 05:33:15 21° 60° (ENE) 05:37:00 ?
AO-27 20 May 05:37:39 05:39:09 11° 308° (NW) 05:40:39 436.795 MHz FM
Gurwin Techsat 1B 20 May 05:41:55 05:47:07 55° 290° (WNW) 05:52:17 435.225 FM
Saudisat 1A 20 May 05:57:11 05:58:37 11° 108° (ESE) 06:00:05 436.775 MHz
KITSAT 1 20 May 06:09:11 06:15:18 22° 17° (NNE) 06:21:24 435.175 FM
ISS 20 May 06:48:28 06:51:40 41° 348° (NNW) 06:54:53 145.800 FM
Uosat F 20 May 06:53:05 06:55:16 13° 305° (NW) 06:57:27 435.120 FM
TMSAT-1 20 May 07:02:52 07:06:31 19° 301° (WNW) 07:10:10 436.925 FM
Hamsat 20 May 07:06:00 07:06:50 11° 87° (E) 07:07:41 145.90 MHz
STRAND 1 20 May 07:07:00 07:12:02 62° 258° (WSW) 07:17:06 ?
AO-7 20 May 07:13:01 07:21:20 72° 294° (WNW) 07:29:38 29.400 - 29.500 MHz
Sapphire 20 May 07:18:40 07:18:53 10° 101° (E) 07:19:06 437.095 MHz 1200 baud AX-25 AFSK
Saudisat 1A 20 May 07:32:59 07:37:34 82° 126° (SE) 07:42:12 436.775 MHz
SO-67 20 May 08:01:07 08:02:26 12° 89° (E) 08:03:45 435.3500 MHz FM
KITSAT 1 20 May 08:04:58 08:12:51 51° 44° (NE) 08:20:43 435.175 FM
JAS-1B 20 May 08:12:59 08:17:54 24° 90° (E) 08:22:28 435.800 - 435.900 CW/SSB
PCSat 20 May 08:23:33 08:28:33 40° 113° (ESE) 08:33:35 145.825 MHz
ISS 20 May 08:25:42 08:28:52 37° 8° (N) 08:32:02 145.800 FM
Hamsat 20 May 08:39:09 08:43:31 85° 284° (WNW) 08:47:53 145.90 MHz
Sapphire 20 May 08:55:55 09:01:16 68° 119° (ESE) 09:06:40 437.095 MHz 1200 baud AX-25 AFSK
AO-7 20 May 09:07:05 09:12:47 21° 316° (NW) 09:18:29 29.400 - 29.500 MHz
Saudisat 1A 20 May 09:14:19 09:17:50 21° 326° (NW) 09:21:23 436.775 MHz
SO-67 20 May 09:32:44 09:36:14 53° 286° (WNW) 09:39:44 435.3500 MHz FM
KITSAT 1 20 May 10:00:35 10:08:18 49° 247° (WSW) 10:15:59 435.175 FM
ISS 20 May 10:02:27 10:05:49 83° 209° (SSW) 10:09:12 145.800 FM
JAS-1B 20 May 10:02:58 10:09:11 55° 293° (WNW) 10:14:45 435.800 - 435.900 CW/SSB
SO-50 20 May 10:05:49 10:10:29 52° 121° (ESE) 10:15:04 436.795 FM
PCSat 20 May 10:06:57 10:12:00 39° 313° (NW) 10:17:06 145.825 MHz
Hamsat 20 May 10:17:41 10:18:54 11° 302° (WNW) 10:20:06 145.90 MHz
HO-68 20 May 10:24:56 10:31:44 44° 99° (E) 10:38:29 435.675 MHz FM
OPAL 20 May 10:29:27 10:31:22 12° 89° (E) 10:33:16 ?
Oscar 11 20 May 10:30:11 10:33:50 25° 94° (E) 10:37:27 145.825 FM, Beacon 2401.500 USB
JAS-2 20 May 10:36:08 10:42:53 42° 95° (E) 10:48:52 435.800 - 435.900 CW/SSB, 435.910 FM
Sapphire 20 May 10:40:40 10:45:12 26° 320° (NW) 10:49:45 437.095 MHz 1200 baud AX-25 AFSK
ISS 20 May 11:40:04 11:42:06 15° 225° (SW) 11:44:08 145.800 FM
UOSAT-12 20 May 11:46:51 11:48:52 13° 109° (ESE) 11:50:55 437.025 FM, 437.400 FM
SO-50 20 May 11:47:11 11:51:21 29° 321° (NW) 11:55:29 436.795 FM
PCSat 20 May 11:54:45 11:57:02 13° 337° (NNW) 11:59:20 145.825 MHz
JAS-1B 20 May 11:56:46 11:58:12 11° 317° (NW) 11:59:35 435.800 - 435.900 CW/SSB
OPAL 20 May 12:05:56 12:11:01 89° 108° (ESE) 12:15:59 ?
Oscar 11 20 May 12:06:09 12:10:08 35° 292° (WNW) 12:14:06 145.825 FM, Beacon 2401.500 USB
MaSat-1 20 May 12:07:48 12:11:30 58° 57° (ENE) 12:14:26 437.345 MHz
HO-68 20 May 12:12:46 12:19:25 43° 298° (WNW) 12:26:04 435.675 MHz FM
JAS-2 20 May 12:21:12 12:27:55 42° 297° (WNW) 12:33:55 435.800 - 435.900 CW/SSB, 435.910 FM
Saudisat 1A 20 May 12:40:49 12:41:16 10° 15° (NNE) 12:41:43 436.775 MHz
Uribyol 2 20 May 12:49:30 12:52:37 16° 57° (ENE) 12:55:44 436.500 FM
Oscar 19 20 May 12:57:27 13:01:14 21° 60° (ENE) 13:05:01 437.125 CW, 437.150 USB
UOSAT-12 20 May 13:23:50 13:28:22 87° 307° (NW) 13:32:57 437.025 FM, 437.400 FM
SO-50 20 May 13:32:29 13:33:31 11° 344° (NNW) 13:34:33 436.795 FM
Oscar 16 20 May 13:34:48 13:39:45 47° 68° (ENE) 13:44:44 437.025 USB, Beacon 2401.1428
AO-27 20 May 13:37:45 13:42:29 38° 66° (ENE) 13:47:15 436.795 MHz FM
ITAMSAT 1 20 May 13:44:57 13:49:47 42° 67° (ENE) 13:54:40 435.822 SSB
OPAL 20 May 13:46:21 13:49:13 15° 306° (NW) 13:52:03 ?
HO-68 20 May 14:03:42 14:05:20 11° 320° (NW) 14:06:57 435.675 MHz FM
JAS-2 20 May 14:09:56 14:10:56 10° 319° (NW) 14:11:56 435.800 - 435.900 CW/SSB, 435.910 FM
Saudisat 1A 20 May 14:18:34 14:22:32 27° 38° (NE) 14:26:25 436.775 MHz
Uribyol 2 20 May 14:26:15 14:31:26 85° 255° (WSW) 14:36:41 436.500 FM
Oscar 19 20 May 14:34:58 14:40:07 65° 258° (WSW) 14:45:19 437.125 CW, 437.150 USB
AO-7 20 May 14:35:28 14:39:44 15° 38° (NE) 14:43:59 29.400 - 29.500 MHz
Uosat F 20 May 14:50:50 14:55:02 28° 63° (ENE) 14:59:16 435.120 FM
AO-Echo 20 May 14:59:40 15:04:30 67° 73° (ENE) 15:09:14 ?
UOSAT-12 20 May 15:05:56 15:09:12 19° 328° (NNW) 15:12:30 437.025 FM, 437.400 FM
TMSAT-1 20 May 15:07:25 15:11:30 23° 61° (ENE) 15:15:35 436.925 FM
Oscar 16 20 May 15:15:02 15:19:20 26° 267° (W) 15:23:40 437.025 USB, Beacon 2401.1428
AO-27 20 May 15:17:28 15:22:04 32° 264° (W) 15:26:42 436.795 MHz FM
ITAMSAT 1 20 May 15:25:01 15:29:27 28° 266° (W) 15:33:55 435.822 SSB
PCSat 20 May 15:25:42 15:29:09 17° 31° (NNE) 15:32:36 145.825 MHz
Gurwin Techsat 1B 20 May 15:26:26 15:31:28 46° 68° (ENE) 15:36:31 435.225 FM
RS-15 20 May 15:29:56 15:36:26 17° 96° (E) 15:42:46 29.354 - 29.394 USB, Beacon 29.352 USB
Saudisat 1A 20 May 15:58:03 16:02:30 53° 239° (WSW) 16:06:51 436.775 MHz
Sapphire 20 May 15:58:15 16:02:32 23° 38° (NE) 16:06:49 437.095 MHz 1200 baud AX-25 AFSK
Uribyol 2 20 May 16:09:53 16:11:44 12° 274° (W) 16:13:35 436.500 FM
AO-7 20 May 16:22:45 16:30:39 52° 61° (ENE) 16:38:36 29.400 - 29.500 MHz
Uosat F 20 May 16:28:57 16:33:41 42° 262° (W) 16:38:27 435.120 FM
AO-Echo 20 May 16:40:49 16:43:45 16° 270° (W) 16:46:41 ?
TMSAT-1 20 May 16:45:51 16:51:03 58° 259° (W) 16:56:18 436.925 FM
SO-50 20 May 16:55:17 16:58:50 21° 34° (NE) 17:02:19 436.795 FM
Gurwin Techsat 1B 20 May 17:07:11 17:11:38 27° 267° (W) 17:16:08 435.225 FM
PCSat 20 May 17:08:19 17:13:43 62° 53° (NE) 17:19:06 145.825 MHz
RS-15 20 May 17:34:44 17:46:33 66° 118° (ESE) 17:57:52 29.354 - 29.394 USB, Beacon 29.352 USB
Sapphire 20 May 17:41:11 17:46:39 82° 239° (WSW) 17:52:04 437.095 MHz 1200 baud AX-25 AFSK
Hamsat 20 May 18:03:05 18:04:45 12° 59° (ENE) 18:06:25 145.90 MHz
AO-7 20 May 18:15:51 18:23:36 43° 261° (W) 18:31:26 29.400 - 29.500 MHz
UOSAT-12 20 May 18:32:29 18:33:38 11° 18° (NNE) 18:34:48 437.025 FM, 437.400 FM
SO-50 20 May 18:35:25 18:40:01 79° 235° (SW) 18:44:30 436.795 FM
PCSat 20 May 18:52:31 18:56:43 23° 252° (WSW) 19:00:55 145.825 MHz
JAS-1B 20 May 18:58:35 19:06:43 39° 62° (ENE) 19:13:46 435.800 - 435.900 CW/SSB
STRAND 1 20 May 19:14:52 19:19:36 36° 97° (E) 19:24:19 ?
HO-68 20 May 19:15:08 19:17:12 11° 41° (NE) 19:19:16 435.675 MHz FM
Sapphire 20 May 19:26:47 19:29:13 13° 257° (WSW) 19:31:38 437.095 MHz 1200 baud AX-25 AFSK
Hamsat 20 May 19:35:59 19:40:12 82° 257° (WSW) 19:44:28 145.90 MHz
RS-15 20 May 19:48:05 19:59:34 51° 324° (NW) 20:10:34 29.354 - 29.394 USB, Beacon 29.352 USB
SO-67 20 May 20:11:03 20:14:38 85° 76° (ENE) 20:18:14 435.3500 MHz FM
UOSAT-12 20 May 20:11:08 20:15:16 31° 41° (NE) 20:19:23 437.025 FM, 437.400 FM
SO-50 20 May 20:19:13 20:19:48 10° 253° (WSW) 20:20:24 436.795 FM
JAS-1B 20 May 20:47:52 20:57:02 59° 259° (W) 21:04:54 435.800 - 435.900 CW/SSB
JAS-2 20 May 20:50:05 20:56:41 32° 59° (ENE) 21:03:20 435.800 - 435.900 CW/SSB, 435.910 FM
STRAND 1 20 May 20:54:11 20:58:46 34° 295° (WNW) 21:03:20 ?
HO-68 20 May 20:56:29 21:03:10 46° 62° (ENE) 21:09:53 435.675 MHz FM
Oscar 11 20 May 21:28:26 21:32:11 29° 67° (ENE) 21:35:57 145.825 FM, Beacon 2401.500 USB
OPAL 20 May 21:45:42 21:50:19 33° 63° (ENE) 21:54:55 ?
UOSAT-12 20 May 21:51:12 21:55:35 44° 240° (WSW) 21:59:57 437.025 FM, 437.400 FM
RS-15 20 May 22:05:25 22:15:22 31° 356° (N) 22:24:59 29.354 - 29.394 USB, Beacon 29.352 USB
JAS-2 20 May 22:33:25 22:41:07 70° 258° (WSW) 22:48:59 435.800 - 435.900 CW/SSB, 435.910 FM
KITSAT 1 20 May 22:39:33 22:44:46 19° 101° (E) 22:49:59 435.175 FM
HO-68 20 May 22:44:16 22:50:55 41° 262° (W) 22:57:38 435.675 MHz FM
JAS-1B 20 May 22:45:35 22:48:52 12° 277° (W) 22:52:01 435.800 - 435.900 CW/SSB
Oscar 11 20 May 23:04:34 23:08:22 30° 264° (W) 23:12:13 145.825 FM, Beacon 2401.500 USB
OPAL 20 May 23:24:20 23:29:09 38° 260° (W) 23:33:58 ?

Developed and maintained by Chris Peat, Heavens-Above GmbH. Please read the updated FAQ before sending e-mail. Imprint. DLR
